TimeHST,TemperatureF,Dew PointF,Humidity,Sea Level PressureIn,VisibilityMPH,Wind Direction,Wind SpeedMPH,Gust SpeedMPH,PrecipitationIn,Events,Conditions,WindDirDegrees,DateUTC
12:55 AM,62.4,60.8,94,30.04,10.0,Calm,Calm,-,N/A,,Clear,0,2013-01-25 10:55:00
1:55 AM,61.3,59.5,94,30.03,10.0,NNW,4.6,-,N/A,,Clear,330,2013-01-25 11:55:00
2:55 AM,60.8,59.2,94,30.01,10.0,Calm,Calm,-,N/A,,Clear,0,2013-01-25 12:55:00
3:55 AM,59.7,58.3,95,30.00,10.0,Calm,Calm,-,N/A,,Clear,0,2013-01-25 13:55:00
4:55 AM,59.9,58.5,95,30.00,10.0,Calm,Calm,-,N/A,,Clear,0,2013-01-25 14:55:00
5:55 AM,59.0,57.6,95,30.01,10.0,NW,3.5,-,N/A,,Clear,310,2013-01-25 15:55:00
6:55 AM,60.3,58.6,94,30.02,10.0,Calm,Calm,-,N/A,,Clear,0,2013-01-25 16:55:00
7:55 AM,61.5,59.9,94,30.04,10.0,NNW,4.6,-,N/A,,Clear,330,2013-01-25 17:55:00
8:55 AM,67.5,64.0,89,30.05,10.0,North,3.5,-,N/A,,Clear,360,2013-01-25 18:55:00
9:55 AM,71.6,64.4,78,30.06,10.0,North,4.6,-,N/A,,Clear,10,2013-01-25 19:55:00
10:55 AM,74.3,63.0,68,30.05,10.0,NW,3.5,-,N/A,,Clear,310,2013-01-25 20:55:00
11:55 AM,75.4,61.0,61,30.04,10.0,Variable,4.6,-,N/A,,Partly Cloudy,0,2013-01-25 21:55:00
12:55 PM,75.6,61.5,62,30.01,10.0,Calm,Calm,-,N/A,,Mostly Cloudy,0,2013-01-25 22:55:00
1:46 PM,75.2,64.4,69,30.00,10.0,Calm,Calm,-,N/A,,Overcast,0,2013-01-25 23:46:00
1:48 PM,75.2,64.4,69,29.99,10.0,NW,4.6,-,N/A,,Overcast,310,2013-01-25 23:48:00
1:55 PM,74.8,63.3,67,29.99,10.0,NNW,5.8,-,N/A,,Overcast,340,2013-01-25 23:55:00
2:11 PM,75.2,62.6,65,29.99,10.0,NNE,5.8,-,N/A,,Overcast,20,2013-01-26 00:11:00
2:25 PM,75.2,64.4,69,29.99,10.0,Variable,3.5,-,N/A,,Light Drizzle,0,2013-01-26 00:25:00
2:28 PM,75.2,64.4,69,29.99,10.0,North,4.6,-,N/A,,Light Drizzle,10,2013-01-26 00:28:00
2:33 PM,73.4,64.4,73,29.99,10.0,Calm,Calm,-,N/A,,Light Drizzle,0,2013-01-26 00:33:00
2:55 PM,71.4,63.9,77,29.99,6.0,SE,5.8,-,0.01,Rain,Light Rain,130,2013-01-26 00:55:00
3:21 PM,71.6,66.2,83,29.98,9.0,ENE,3.5,-,N/A,Rain,Light Rain,70,2013-01-26 01:21:00
3:29 PM,71.6,66.2,83,29.97,10.0,Calm,Calm,-,N/A,,Mostly Cloudy,0,2013-01-26 01:29:00
3:55 PM,72.0,65.8,81,29.98,10.0,SSE,4.6,-,0.07,,Partly Cloudy,150,2013-01-26 01:55:00
4:55 PM,72.9,63.5,72,29.99,10.0,Calm,Calm,-,N/A,,Overcast,0,2013-01-26 02:55:00
5:55 PM,71.8,64.6,78,30.00,10.0,ENE,3.5,-,N/A,,Partly Cloudy,60,2013-01-26 03:55:00
6:21 PM,71.6,64.4,78,30.02,10.0,NNW,4.6,-,N/A,,Mostly Cloudy,340,2013-01-26 04:21:00
6:54 PM,69.8,64.4,83,30.01,10.0,Calm,Calm,-,N/A,,Scattered Clouds,0,2013-01-26 04:54:00
6:55 PM,70.2,64.9,83,30.01,10.0,Calm,Calm,-,N/A,,Scattered Clouds,0,2013-01-26 04:55:00
7:20 PM,69.8,64.4,83,30.02,10.0,Calm,Calm,-,N/A,,Mostly Cloudy,0,2013-01-26 05:20:00
7:55 PM,68.4,65.5,90,30.03,10.0,Calm,Calm,-,N/A,,Mostly Cloudy,0,2013-01-26 05:55:00
7:57 PM,68.0,64.4,88,30.03,10.0,Calm,Calm,-,N/A,,Scattered Clouds,0,2013-01-26 05:57:00
8:55 PM,67.1,64.2,90,30.02,10.0,Calm,Calm,-,N/A,,Clear,0,2013-01-26 06:55:00
9:55 PM,64.2,62.2,93,30.03,9.0,Calm,Calm,-,N/A,,Clear,0,2013-01-26 07:55:00
10:55 PM,63.9,61.9,93,30.02,10.0,Calm,Calm,-,N/A,,Clear,0,2013-01-26 08:55:00
11:55 PM,62.4,60.6,94,30.01,6.0,Calm,Calm,-,N/A,,Clear,0,2013-01-26 09:55:00